Location: Taukkyan
(23.1052°N, 94.0030°E)
Time: 10:36:44
(UTC+00:00)

CZ-4B R/B - Pass Details

Date: 06 July 2020
Orbit: 487 x 651 km, 97.9° (Epoch: 14 August)

Event Time Altitude Azimuth Distance (km) Brightness Sun altitude
Rises 22:09:34 0° 21° (NNE) 2,737 7.3 -11.9°
Reaches altitude 10° 22:11:44 10° 28° (NNE) 1,867 6.5 -11.5°
Maximum altitude 22:15:35 43° 100° (E) 833 4.2 -10.7°
Drops below altitude 10° 22:19:38 10° 172° (S) 1,952 5.4 -9.9°
Sets 22:21:56 0° 179° (S) 2,878 6.2 -9.5°
